Simultaneous Nadir Overpasses (SNOs) Predictions

Prediction of SNOs between METOP-A and NOAA-19 Satellite Orbit:

Table of predicted SNOs for the next 14.0 days since TLE Epoch: 12/14/2018
Index Date (METOP-A) Time (METOP-A) Lat,Lon (METOP-A) SZA (METOP-A ) Date (NOAA-19) Time (NOAA-19) Lat,Lon (NOAA-19) SZA (NOAA-19 ) Distance(km) Time Diff (sec)
1 12/23/2018 16:02:39 79.20, -50.07 102.75 12/23/2018 16:01:35 79.20, -50.11 102.73 1.04 64
2 12/23/2018 16:53:21 -79.19, 117.17 77.27 12/23/2018 16:52:30 -79.19, 117.18 77.28 0.34 51
3 12/23/2018 17:44:01 79.18, -75.57 102.72 12/23/2018 17:43:36 79.20, -75.62 102.73 2.10 25
4 12/23/2018 18:34:43 -79.17, 91.68 77.30 12/23/2018 18:34:31 -79.19, 91.68 77.28 2.70 12
5 12/23/2018 19:25:22 79.19,-100.80 102.73 12/23/2018 19:25:36 79.17,-100.86 102.71 3.41 14
6 12/23/2018 20:16:04 -79.18, 66.44 77.29 12/23/2018 20:16:31 -79.16, 66.44 77.30 2.34 27
7 12/23/2018 21:06:44 79.17,-126.30 102.71 12/23/2018 21:07:37 79.17,-126.36 102.70 1.60 53
8 12/23/2018 21:57:26 -79.16, 40.95 77.31 12/23/2018 21:58:32 -79.16, 40.93 77.30 0.39 66




NCC Satellite Simultaneous Nadir Overpasses (SNOs) Prediction Service
